Theta_e
326 319 326 311 299 299 298 302 311 311 310 314 316 317 316 317 313 305 327 330 332 336 340 342 346 347 348 346 346 347 344 342 340 338 336 336 335 335 334 334 333 333 333 333 333 333 333 332 332
323 323 313 305 296 293 297 306 308 308 314 318 317 316 316 313 322 320 324 330 335 338 339 340 344 346 345 345 346 345 344 341 338 336 336 335 335 334 334 333 332 332 331 331 331 331 331 331 331
319 318 307 300 295 294 297 309 310 310 314 311 313 317 317 317 321 324 326 334 338 338 339 339 343 345 344 344 344 343 342 339 337 336 335 335 335 333 332 332 332 331 330 330 329 329 329 329 329
312 311 306 298 295 298 303 309 315 310 310 315 316 313 321 327 326 325 332 338 338 337 338 339 342 343 343 345 344 342 340 338 336 335 335 334 334 333 333 332 331 331 330 330 330 330 330 331 331
311 307 299 295 297 299 308 312 316 309 308 312 315 311 315 325 326 331 336 337 335 334 336 338 342 345 345 345 345 343 340 338 336 335 335 334 334 333 332 332 331 332 332 332 332 331 332 332 332
305 304 300 295 297 299 305 311 311 308 308 315 315 314 318 326 327 331 334 333 335 334 336 338 336 339 342 344 344 343 342 340 338 337 335 335 334 333 333 333 332 332 333 333 333 333 333 333 333
303 300 300 300 299 299 304 308 309 306 306 307 317 312 318 325 328 331 330 332 332 335 336 336 337 336 334 338 339 341 341 341 340 340 339 337 336 336 336 336 335 334 334 333 334 334 334 333 333
305 302 300 302 299 302 304 305 308 306 305 313 319 313 316 326 329 330 332 331 331 332 333 333 334 337 335 334 332 334 337 337 337 336 334 332 332 332 332 331 332 334 335 334 335 336 335 335 335
307 298 298 302 301 305 305 305 306 312 314 317 322 317 321 327 325 328 326 326 331 331 330 330 330 333 333 333 332 329 331 332 332 332 329 328 327 325 326 326 329 333 335 335 335 336 336 334 332
302 295 299 305 303 302 306 305 305 306 310 315 319 324 325 324 322 322 320 321 323 327 330 330 329 329 331 336 333 332 334 333 331 330 328 327 324 324 325 322 324 327 328 331 333 334 333 328 323
302 298 302 304 307 307 305 304 304 305 302 313 317 322 320 321 321 320 319 320 321 321 327 330 331 330 329 330 328 327 328 328 328 327 326 325 325 324 323 323 323 321 320 321 323 322 321 320 320
299 303 303 306 306 306 303 304 303 304 304 317 323 323 319 319 322 322 320 320 320 321 324 328 330 330 330 329 329 327 327 327 327 328 328 325 324 323 323 323 322 321 321 321 320 320 320 320 320
300 301 303 303 304 304 306 302 303 306 317 322 322 321 318 318 320 322 323 322 324 323 325 323 326 327 328 326 326 327 328 328 328 328 328 328 325 324 324 324 323 322 322 321 321 320 320 320 320
302 302 302 303 302 303 304 303 303 306 317 305 306 304 303 302 302 302 304 303 307 320 323 329 322 322 324 322 322 325 327 327 326 325 326 328 327 326 326 325 324 323 322 322 320 320 320 320 320
302 298 298 300 301 300 303 298 295 295 299 297 298 299 301 301 303 301 304 304 304 306 310 314 326 327 323 324 326 327 328 328 328 328 329 328 328 328 327 326 325 325 324 323 323 322 322 321 320
298 296 292 297 299 300 303 294 293 295 297 295 297 298 300 301 301 302 302 303 305 307 309 314 319 328 330 330 331 332 332 333 334 334 334 334 334 333 330 328 327 327 327 325 325 325 324 324 323
297 288 290 292 298 296 297 290 293 295 296 294 295 297 298 298 298 299 300 300 301 303 304 307 310 314 327 332 332 333 331 328 325 324 322 320 322 326 330 327 326 329 328 327 327 327 326 324 324
293 292 292 290 293 292 289 288 291 295 296 294 294 294 295 295 296 297 298 299 300 300 301 303 306 308 320 332 330 326 321 319 315 312 308 308 310 311 315 316 316 320 316 315 314 316 320 321 317
298 296 294 294 294 291 288 288 289 292 294 294 293 294 293 293 296 296 296 296 297 297 298 299 301 303 309 323 323 317 312 310 308 306 305 303 304 305 305 306 306 308 306 306 306 308 310 314 313
297 296 295 299 297 292 289 287 289 290 290 291 293 293 292 293 293 293 293 293 293 293 295 295 297 299 303 309 312 312 308 305 303 303 301 300 299 300 300 301 301 302 302 301 301 302 304 307 309
294 295 293 295 298 296 293 291 289 289 290 291 291 292 292 291 292 292 291 290 291 291 292 293 294 296 298 302 304 302 300 298 297 297 298 298 297 298 298 298 298 299 299 298 298 299 300 299 302
290 296 296 295 294 287 294 284 291 287 287 288 289 289 290 291 291 291 290 290 290 290 291 292 293 293 295 296 296 295 293 292 293 295 296 296 296 295 296 296 297 297 297 296 297 297 297 296 294
292 296 297 296 293 290 290 287 289 290 287 286 289 290 290 291 291 290 291 291 291 291 291 292 292 292 292 293 294 293 292 293 293 293 293 293 294 294 294 295 295 294 295 294 294 293 293 293 292
298 295 294 293 291 284 289 289 284 288 290 288 290 290 291 291 291 291 291 291 290 290 291 291 291 291 291 290 291 291 290 290 290 290 290 290 291 291 292 293 293 293 292 291 292 292 290 290 291
296 291 282 281 281 280 286 288 285 291 294 290 289 289 291 291 290 290 289 289 289 290 290 291 290 289 290 289 289 289 289 288 287 287 287 287 288 288 289 290 291 291 290 290 290 290 288 288 288
293 292 283 276 278 279 286 283 284 286 292 291 292 291 291 290 290 289 289 288 288 288 287 287 288 287 288 287 286 287 287 287 287 286 286 286 286 287 289 289 290 290 289 288 288 288 286 286 286
292 289 290 282 279 280 283 280 284 285 286 288 288 288 288 288 288 288 287 287 287 286 286 286 286 287 286 286 285 285 285 285 284 284 285 284 285 287 287 288 287 288 287 286 286 286 284 285 285
292 294 285 282 275 275 278 277 279 281 283 286 286 287 288 288 288 287 285 285 286 285 285 285 285 285 285 285 284 284 283 283 283 283 282 282 283 285 285 286 285 286 285 285 284 284 284 283 284
289 287 287 286 283 277 274 278 283 284 285 285 286 287 287 287 287 286 286 285 285 284 284 284 284 284 284 284 283 282 282 282 282 281 281 281 282 283 284 285 284 283 284 284 283 282 282 281 281
289 286 287 280 278 280 280 278 284 287 287 287 286 287 288 288 287 286 285 284 284 283 283 283 282 282 283 283 282 281 281 281 280 280 280 281 280 282 282 283 283 282 283 283 282 281 281 279 280
Wind_Speed
5 4 3 5 5 5 2 3 3 1 3 4 2 6 8 5 3 3 3 5 14 11 7 7 12 10 14 13 10 14 14 13 12 11 10 10 10 9 8 8 7 6 7 6 7 7 7 7 7
2 2 5 2 5 3 4 3 3 3 6 7 7 3 7 4 3 5 4 5 12 11 8 6 10 11 12 12 12 14 13 12 11 10 9 9 8 7 7 6 6 5 5 5 5 5 5 6 6
2 4 4 4 3 4 4 2 3 1 5 1 5 5 3 2 2 7 7 11 10 8 8 8 11 11 11 11 11 12 11 11 10 8 8 7 7 6 4 4 4 3 3 3 4 4 5 5 6
3 5 4 4 4 5 5 4 4 2 2 5 5 7 3 1 6 7 11 13 11 7 6 9 11 11 11 11 12 12 11 10 8 7 7 6 5 4 3 2 2 2 2 3 3 4 5 7 8
4 3 2 1 3 3 3 2 6 2 1 6 1 3 3 4 8 15 12 11 13 7 7 6 9 9 9 10 12 12 11 9 8 7 6 5 3 2 1 1 2 3 4 5 6 5 6 7 8
4 3 1 2 3 1 3 2 5 2 3 3 6 4 3 4 10 9 11 8 8 11 7 7 8 6 6 11 11 10 9 9 8 6 6 5 4 3 3 3 4 5 6 7 7 8 8 9 9
5 3 2 2 2 1 2 4 6 6 4 4 5 5 2 5 4 7 8 9 7 8 9 7 7 8 7 5 6 6 6 6 6 5 5 3 3 4 5 5 7 8 9 9 10 10 10 11 11
5 4 1 2 2 0 3 2 5 4 3 3 2 6 5 4 7 8 6 7 6 6 6 6 6 8 6 6 8 7 6 6 5 4 4 3 4 5 6 6 7 10 11 12 11 11 12 13 13
3 4 1 2 2 1 1 4 2 2 6 5 4 2 1 8 12 10 7 4 5 3 3 4 4 5 5 6 4 5 5 6 6 5 6 5 3 5 5 6 8 11 12 13 13 13 12 11 10
4 3 6 2 2 2 1 2 5 4 3 5 8 9 8 7 9 12 7 6 4 5 6 4 5 5 4 3 5 5 5 4 3 4 4 4 4 4 4 6 8 10 11 12 13 12 10 8 4
3 5 3 3 2 4 3 3 2 9 2 5 11 10 5 6 6 6 6 7 7 3 2 5 6 6 6 4 3 3 2 2 3 5 5 5 3 3 3 3 3 4 5 4 5 5 4 5 4
4 4 3 4 3 2 2 2 4 5 3 9 12 9 4 8 6 4 3 5 6 5 5 4 4 4 5 3 3 3 3 3 3 4 5 3 3 4 4 3 4 4 3 5 4 3 5 6 6
3 3 1 2 4 3 5 4 6 8 6 13 11 9 7 6 5 4 3 4 1 4 5 7 6 6 4 4 3 2 4 3 3 4 5 4 4 4 3 4 4 4 3 4 4 4 4 5 6
5 3 2 3 4 3 7 4 5 7 6 14 12 12 11 10 7 7 8 6 6 2 3 3 6 7 6 5 4 4 3 3 3 4 4 4 4 4 4 4 4 4 3 4 4 4 5 5 5
3 4 2 3 2 2 1 7 6 7 12 14 13 11 12 11 12 10 8 7 6 4 5 6 3 5 6 5 5 3 3 2 3 3 4 4 3 4 4 4 3 3 3 4 3 4 4 4 4
4 5 5 3 5 5 0 3 7 8 16 11 11 9 11 11 11 9 9 8 9 8 8 7 6 2 4 1 2 3 3 4 5 5 6 7 6 5 3 3 3 4 2 3 3 3 4 5 4
3 5 4 1 5 1 6 4 9 6 12 10 8 8 9 9 12 10 10 9 9 9 9 9 8 7 1 5 4 7 9 9 9 8 9 12 12 11 7 7 7 6 5 5 5 4 3 5 5
8 6 3 5 4 12 13 8 6 9 11 9 7 7 8 9 9 8 10 10 9 10 10 10 8 10 6 5 9 7 9 9 8 9 10 13 10 13 9 8 10 9 8 8 8 8 7 4 7
14 6 8 3 4 9 7 10 7 6 9 9 6 7 7 7 6 8 9 9 10 12 12 13 12 12 8 6 7 6 8 7 8 9 14 13 12 12 12 8 10 9 8 9 10 7 9 4 10
14 17 11 3 7 11 7 8 6 6 4 4 5 7 7 5 9 9 10 11 11 10 10 12 13 12 10 7 5 5 6 7 7 7 11 12 12 13 11 10 9 10 7 11 11 10 5 4 7
8 17 14 11 5 7 5 3 2 3 5 6 5 5 6 6 6 8 9 9 9 12 11 11 12 13 12 11 7 5 5 5 5 7 8 10 12 11 11 11 9 9 8 8 8 10 11 7 4
9 6 13 17 16 4 9 4 6 4 4 3 5 5 5 5 5 6 7 9 9 9 7 10 12 13 12 12 11 12 8 6 4 4 5 7 10 11 11 10 9 9 7 9 9 8 7 7 8
5 9 15 16 11 8 11 3 4 12 6 6 6 7 6 5 5 6 7 8 8 8 9 9 12 14 12 12 11 8 9 5 4 5 7 8 8 11 12 11 10 10 8 9 10 9 10 7 5
7 10 9 6 2 6 12 10 5 12 18 9 10 10 9 7 6 5 6 7 7 6 9 10 12 12 11 12 12 11 10 8 7 7 6 6 6 7 11 10 9 9 9 9 8 8 9 8 6
7 12 3 5 5 5 5 9 6 12 9 15 15 11 11 10 7 6 6 6 7 9 8 9 10 11 10 11 11 10 9 8 8 7 6 7 6 6 9 9 9 7 9 9 8 8 8 8 7
15 12 6 8 6 5 2 9 4 3 7 13 12 13 10 9 7 7 6 6 7 8 8 7 8 8 8 9 9 7 9 6 6 6 5 5 5 5 7 7 7 7 9 8 8 5 7 8 6
7 10 4 6 5 4 4 4 2 3 10 13 14 12 10 10 8 8 7 6 6 7 6 6 6 7 8 7 7 8 7 8 6 7 5 4 5 6 7 7 7 6 7 8 7 5 8 7 7
3 8 3 2 8 5 2 4 5 10 12 14 15 14 12 9 9 7 6 6 6 6 6 6 6 6 6 6 5 6 5 5 5 5 5 5 4 5 5 5 6 5 7 7 7 6 7 8 7
3 5 5 2 1 5 4 7 6 17 17 17 14 12 12 10 9 8 6 6 5 5 5 5 5 5 5 5 5 4 4 4 4 4 5 5 5 6 7 6 6 7 5 6 6 7 7 9 8
4 6 4 3 4 2 1 3 3 10 14 14 12 12 10 10 9 7 7 7 6 5 5 5 4 5 4 4 4 4 5 4 4 5 5 5 6 5 5 5 6 6 7 6 6 6 7 9 9
Wind_Direction
334 338 45 29 58 66 240 267 310 218 43 347 62 106 108 63 52 175 27 125 129 139 141 138 127 118 131 129 140 140 134 118 115 114 113 110 107 104 102 97 91 85 85 80 72 63 58 51 45
334 84 46 71 88 70 275 255 86 278 146 148 81 72 44 80 90 112 104 139 136 136 132 128 127 126 121 115 122 125 121 116 116 121 120 116 110 106 104 99 91 80 75 71 65 55 43 32 24
142 59 75 97 115 176 200 252 158 135 170 229 96 52 91 77 77 152 133 132 130 125 127 132 131 133 133 128 118 115 116 120 123 126 124 122 116 110 100 95 88 74 57 47 41 34 21 8 359
63 16 29 94 213 241 196 200 156 72 143 76 114 63 35 353 168 144 135 127 129 114 115 134 136 141 146 139 135 130 128 129 134 138 138 136 129 119 111 87 46 22 1 355 358 354 351 345 339
35 66 52 114 259 246 230 268 149 57 41 14 66 131 58 36 102 128 130 132 139 124 124 129 136 138 146 153 149 144 143 145 148 149 144 140 144 163 198 300 320 328 322 325 326 326 319 320 319
46 91 80 237 251 191 280 192 103 136 87 171 72 84 84 111 122 138 133 131 140 136 132 134 134 129 134 160 152 151 151 154 160 165 170 174 181 208 244 273 291 299 302 305 305 305 305 304 303
113 89 204 270 252 65 185 137 136 149 108 39 119 80 85 130 142 138 132 127 142 142 142 144 151 152 148 133 137 156 158 164 173 181 187 198 223 260 267 282 289 294 296 295 294 294 296 297 298
105 98 4 275 263 47 320 68 111 103 100 104 47 161 172 154 134 113 104 128 129 143 147 155 153 159 161 159 173 179 181 182 191 203 212 233 256 272 288 297 293 288 289 290 286 286 290 294 299
114 61 154 247 190 244 279 110 48 43 87 47 22 64 83 115 119 114 103 52 120 117 144 151 158 165 156 163 191 202 210 199 205 221 228 228 243 270 283 283 283 288 286 286 288 287 286 291 295
100 121 221 194 216 204 84 96 135 92 79 62 83 77 71 90 131 136 134 138 151 173 194 179 164 174 166 164 165 197 200 218 239 249 250 252 255 261 272 283 289 291 287 288 283 291 295 295 285
161 182 233 262 206 239 123 113 61 130 89 183 153 138 92 99 90 122 139 156 186 191 186 207 188 182 183 196 183 182 195 218 235 240 243 254 268 271 274 278 283 289 284 286 289 289 278 284 277
137 262 248 329 338 337 53 62 68 4 22 124 128 127 82 106 108 108 131 166 155 178 216 232 248 205 202 188 191 198 190 199 236 242 245 243 260 267 264 263 270 270 271 280 274 277 280 276 273
162 223 4 357 41 91 114 61 93 26 40 96 102 85 90 94 95 59 42 27 105 200 208 221 198 223 229 208 218 218 225 217 226 251 258 232 246 258 271 256 249 251 268 263 283 281 279 279 275
172 208 149 349 27 52 113 69 66 9 81 67 72 77 67 54 58 62 34 22 18 344 324 253 236 209 188 207 209 214 211 220 238 244 251 258 241 250 246 262 264 271 272 288 282 277 285 279 276
164 113 59 44 328 75 48 33 45 320 90 85 73 71 68 53 46 38 27 18 7 8 0 20 266 207 214 198 198 212 236 231 274 292 285 270 253 277 289 293 309 307 301 294 297 294 288 284 277
135 71 136 358 343 40 179 122 349 324 99 77 81 71 71 50 48 27 17 14 8 10 14 12 21 69 176 168 23 45 17 18 34 29 31 28 19 25 34 356 355 321 343 309 305 297 297 289 294
299 167 150 193 27 79 44 95 1 37 92 84 58 61 69 51 36 23 18 16 13 11 7 14 17 17 77 131 92 64 57 53 39 33 29 27 25 18 32 30 16 2 8 13 353 342 308 312 316
196 142 130 144 7 64 80 89 47 40 79 87 72 53 52 59 35 16 19 17 19 14 16 17 18 15 21 102 84 71 67 60 45 42 34 32 26 26 25 27 20 19 25 19 6 352 350 334 351
182 197 104 90 155 73 71 85 65 43 66 76 74 78 65 43 17 35 30 24 27 25 25 19 24 12 29 61 90 72 65 53 49 43 36 33 29 29 29 29 22 16 28 20 12 344 352 350 357
169 191 200 90 69 86 92 71 63 59 56 74 89 77 67 53 41 31 29 24 27 32 26 29 31 23 30 39 57 68 80 62 58 44 41 34 31 31 33 27 25 27 20 21 18 13 345 339 17
190 186 175 180 136 40 111 32 104 55 90 81 65 82 75 63 56 42 37 26 28 30 20 35 37 39 35 38 55 61 55 46 41 33 33 29 31 29 31 27 25 24 26 24 16 12 14 355 350
203 172 149 144 164 175 165 218 235 173 141 116 113 87 92 83 62 47 42 38 30 22 22 43 49 48 42 44 64 61 63 61 21 29 24 28 29 28 25 26 27 29 25 24 18 16 20 5 10
219 141 152 164 158 126 192 206 222 163 197 196 168 139 122 96 85 68 64 59 42 21 29 41 51 51 46 53 58 68 67 53 36 30 31 27 29 27 23 23 23 26 26 20 21 16 23 16 14
147 84 47 52 88 211 183 194 208 191 202 160 163 154 141 121 92 78 68 63 53 33 42 43 50 47 43 48 49 56 58 52 42 33 34 22 18 21 23 21 26 28 28 19 16 15 19 14 13
142 139 131 194 205 219 176 202 245 203 191 175 160 161 149 132 122 101 81 69 60 56 43 56 49 48 42 49 46 41 53 53 51 34 30 21 17 18 11 13 21 28 18 14 13 21 12 7 4
190 174 161 185 183 149 111 211 238 285 156 150 154 144 137 127 130 122 107 92 83 69 53 53 52 53 42 50 52 41 40 48 49 35 30 27 14 13 8 12 23 43 22 15 11 24 12 5 356
174 201 98 88 1 83 185 319 299 106 126 137 143 146 145 140 140 128 112 102 85 71 64 61 64 63 51 48 45 40 34 37 37 30 24 22 10 16 11 13 20 37 23 15 12 11 11 358 354
212 130 140 278 157 193 220 254 227 169 164 157 161 160 153 144 138 131 125 116 98 90 80 71 65 67 61 54 50 54 37 34 26 27 19 12 11 6 8 14 19 21 24 15 15 6 11 358 358
183 162 139 88 315 153 147 246 199 181 178 169 164 159 154 152 149 144 134 116 109 102 92 86 73 76 68 62 61 57 41 31 34 39 22 11 5 13 12 11 17 13 8 12 12 6 11 1 354
158 152 140 179 182 31 56 272 355 186 169 161 159 154 152 155 154 148 142 137 129 122 110 103 84 79 73 73 68 56 44 28 33 29 18 14 13 8 10 8 16 8 1 353 359 3 7 2 351